Location: Cahas Mountain Overlook
(37.0833°N, 80.1000°W)
Time: 11:21:05
(UTC-04:00)

A-11 Canister half - Pass Details

Date: 12 February 2026
Orbit: 1524 x 1683 km, 47.3° (Epoch: 16 March)

Event Time Altitude Azimuth Distance (km) Brightness Sun altitude
Rises 18:02:37 0° 237° (WSW) 4,708 13.3 -1.8°
Reaches altitude 10° 18:05:40 10° 238° (WSW) 3,712 12.6 -2.4°
Maximum altitude 18:15:03 85° 327° (NNW) 1,532 9.1 -4.2°
Drops below altitude 10° 18:24:23 10° 57° (ENE) 3,697 10.4 -6.1°
Enters shadow 18:25:59 - 58° (ENE) 4,217 10.7 -6.4°
